| time (UTC) | temp F | wind direction | speed MPH | gust MPH | rain 1hr in | rain 24hr in | rain mn in | humidity % | barometer mb |
| 20260504023528 | 55 | 0.0 | 0.0 | 0.00 | 0.12 | 0.00 | 95 | 1013.9 | |
| 20260504022523 | 55 | 0.0 | 0.0 | 0.00 | 0.12 | 0.00 | 95 | 1014.0 | |
| 20260504021517 | 55 | 0.0 | 0.0 | 0.00 | 0.12 | 0.00 | 95 | 1013.9 | |
| 20260504020532 | 56 | 105 | 1.0 | 2.0 | 0.00 | 0.12 | 0.00 | 95 | 1014.0 |
| 20260504015547 | 56 | 137 | 2.0 | 3.0 | 0.00 | 0.12 | 0.00 | 94 | 1014.2 |
| 20260504014521 | 56 | 139 | 1.0 | 2.0 | 0.00 | 0.12 | 0.00 | 94 | 1014.2 |
| 20260504013535 | 56 | 114 | 1.0 | 3.0 | 0.00 | 0.12 | 0.00 | 94 | 1014.1 |
| 20260504012529 | 56 | 145 | 1.0 | 3.0 | 0.00 | 0.12 | 0.00 | 94 | 1014.2 |
| 20260504011524 | 56 | 118 | 1.0 | 2.0 | 0.00 | 0.12 | 0.00 | 94 | 1014.2 |
| 20260504010519 | 56 | 150 | 2.0 | 4.0 | 0.00 | 0.12 | 0.00 | 94 | 1014.2 |
| 20260504005553 | 56 | 152 | 1.0 | 3.0 | 0.00 | 0.12 | 0.00 | 94 | 1014.3 |
| 20260504004547 | 56 | 133 | 1.0 | 3.0 | 0.00 | 0.12 | 0.00 | 94 | 1014.3 |
| 20260504003523 | 56 | 125 | 1.0 | 4.0 | 0.00 | 0.12 | 0.00 | 94 | 1014.4 |
| 20260504002556 | 56 | 129 | 2.0 | 4.0 | 0.00 | 0.12 | 0.00 | 94 | 1014.5 |
| 20260504001531 | 56 | 116 | 2.0 | 4.0 | 0.00 | 0.12 | 0.00 | 94 | 1014.6 |
| 20260504000524 | 56 | 98 | 2.0 | 4.0 | 0.00 | 0.12 | 0.00 | 94 | 1014.6 |
| 20260503235519 | 56 | 131 | 1.0 | 4.0 | 0.00 | 0.12 | 0.00 | 94 | 1014.7 |
| 20260503234534 | 56 | 118 | 2.0 | 4.0 | 0.00 | 0.12 | 0.00 | 94 | 1014.9 |
| 20260503233527 | 55 | 114 | 2.0 | 4.0 | 0.00 | 0.12 | 0.00 | 94 | 1015.1 |
| 20260503232522 | 55 | 84 | 3.0 | 7.0 | 0.00 | 0.12 | 0.00 | 94 | 1014.7 |
| 20260503231539 | 55 | 107 | 4.0 | 8.0 | 0.00 | 0.12 | 0.00 | 94 | 1015.0 |
| 20260503230551 | 55 | 104 | 3.0 | 6.0 | 0.00 | 0.12 | 0.00 | 94 | 1015.1 |
| 20260503225526 | 55 | 106 | 3.0 | 7.0 | 0.00 | 0.12 | 0.00 | 94 | 1015.2 |
| 20260503224519 | 55 | 101 | 3.0 | 7.0 | 0.00 | 0.12 | 0.00 | 94 | 1015.1 |
| 20260503223534 | 55 | 109 | 3.0 | 7.0 | 0.00 | 0.12 | 0.00 | 94 | 1015.0 |
| 20260503222529 | 55 | 94 | 3.0 | 7.0 | 0.00 | 0.12 | 0.00 | 94 | 1015.1 |
| 20260503221522 | 55 | 98 | 4.0 | 7.0 | 0.00 | 0.12 | 0.00 | 94 | 1015.3 |
| 20260503220538 | 55 | 94 | 3.0 | 7.0 | 0.00 | 0.12 | 0.00 | 94 | 1015.1 |
| 20260503215551 | 56 | 93 | 4.0 | 8.0 | 0.00 | 0.12 | 0.12 | 94 | 1015.1 |
| 20260503214544 | 56 | 95 | 3.0 | 7.0 | 0.00 | 0.12 | 0.12 | 93 | 1015.1 |
| 20260503213519 | 56 | 95 | 5.0 | 11.0 | 0.00 | 0.12 | 0.12 | 93 | 1015.1 |
| 20260503212555 | 56 | 93 | 2.0 | 4.0 | 0.00 | 0.12 | 0.12 | 94 | 1015.2 |
| 20260503211527 | 56 | 108 | 3.0 | 6.0 | 0.00 | 0.12 | 0.12 | 93 | 1015.2 |
| 20260503210521 | 56 | 113 | 3.0 | 7.0 | 0.00 | 0.12 | 0.12 | 93 | 1015.0 |
| 20260503205536 | 56 | 54 | 1.0 | 3.0 | 0.00 | 0.12 | 0.12 | 93 | 1014.9 |
| 20260503204531 | 56 | 77 | 3.0 | 7.0 | 0.00 | 0.12 | 0.12 | 93 | 1014.8 |
| 20260503203525 | 56 | 111 | 4.0 | 8.0 | 0.00 | 0.12 | 0.12 | 93 | 1014.7 |
| 20260503202520 | 57 | 116 | 6.0 | 13.0 | 0.00 | 0.12 | 0.12 | 92 | 1014.5 |
| 20260503201533 | 57 | 121 | 5.0 | 10.0 | 0.00 | 0.12 | 0.12 | 92 | 1014.4 |
| 20260503200527 | 57 | 109 | 6.0 | 13.0 | 0.00 | 0.12 | 0.12 | 92 | 1014.4 |
| 20260503195543 | 58 | 107 | 5.0 | 10.0 | 0.00 | 0.12 | 0.12 | 92 | 1014.1 |
| 20260503194517 | 58 | 119 | 5.0 | 8.0 | 0.00 | 0.12 | 0.12 | 92 | 1014.0 |
| 20260503193532 | 58 | 118 | 5.0 | 8.0 | 0.00 | 0.12 | 0.12 | 92 | 1013.7 |
| 20260503192525 | 59 | 115 | 5.0 | 9.0 | 0.00 | 0.12 | 0.12 | 91 | 1013.6 |
| 20260503191519 | 59 | 100 | 3.0 | 8.0 | 0.00 | 0.12 | 0.12 | 91 | 1013.6 |
| 20260503190533 | 59 | 111 | 4.0 | 8.0 | 0.00 | 0.12 | 0.12 | 91 | 1013.5 |
| 20260503185607 | 60 | 110 | 5.0 | 9.0 | 0.00 | 0.12 | 0.12 | 90 | 1013.3 |
| 20260503184603 | 60 | 109 | 5.0 | 8.0 | 0.00 | 0.12 | 0.12 | 89 | 1013.2 |
| 20260503183535 | 61 | 123 | 5.0 | 10.0 | 0.00 | 0.12 | 0.12 | 89 | 1013.2 |
| 20260503182529 | 61 | 119 | 6.0 | 10.0 | 0.00 | 0.12 | 0.12 | 88 | 1013.1 |
| 20260503181546 | 61 | 127 | 6.0 | 10.0 | 0.00 | 0.12 | 0.12 | 88 | 1013.0 |
| 20260503180518 | 62 | 127 | 5.0 | 8.0 | 0.00 | 0.12 | 0.12 | 87 | 1012.9 |
| 20260503175534 | 62 | 132 | 6.0 | 10.0 | 0.00 | 0.12 | 0.12 | 86 | 1013.0 |
| 20260503174527 | 63 | 119 | 5.0 | 9.0 | 0.00 | 0.12 | 0.12 | 84 | 1012.8 |
| 20260503173520 | 65 | 231 | 1.0 | 3.0 | 0.00 | 0.12 | 0.12 | 78 | 1012.8 |
| 20260503172535 | 64 | 258 | 1.0 | 2.0 | 0.00 | 0.12 | 0.12 | 77 | 1012.8 |
| 20260503171529 | 64 | 251 | 1.0 | 2.0 | 0.00 | 0.12 | 0.12 | 76 | 1012.8 |
| 20260503170522 | 64 | 243 | 0.0 | 2.0 | 0.00 | 0.12 | 0.12 | 77 | 1013.0 |
| 20260503150537 | 65 | 199 | 5.0 | 9.0 | 0.00 | 0.06 | 0.06 | 78 | 1013.4 |
| 20260503130546 | 60 | 178 | 4.0 | 9.0 | 0.00 | 0.04 | 0.04 | 88 | 1014.9 |
| 20260503110540 | 61 | 133 | 4.0 | 7.0 | 0.01 | 0.02 | 0.02 | 84 | 1015.6 |
| 20260503081543 | 56 | 109 | 6.0 | 10.0 | 0.00 | 0.01 | 0.01 | 94 | 1016.3 |
| 20260503080517 | 56 | 119 | 6.0 | 10.0 | 0.00 | 0.01 | 0.01 | 94 | 1016.3 |
| 20260503072535 | 55 | 114 | 5.0 | 9.0 | 0.00 | 0.01 | 0.01 | 95 | 1016.3 |
| 20260503071529 | 55 | 111 | 5.0 | 9.0 | 0.00 | 0.01 | 0.01 | 95 | 1016.3 |
| 20260503070523 | 55 | 113 | 5.0 | 9.0 | 0.00 | 0.01 | 0.01 | 95 | 1016.3 |
| 20260503054518 | 55 | 112 | 5.0 | 9.0 | 0.00 | 0.00 | 0.00 | 95 | 1016.0 |
| 20260503053531 | 55 | 115 | 4.0 | 8.0 | 0.00 | 0.00 | 0.00 | 95 | 1015.9 |
| 20260503052527 | 55 | 115 | 4.0 | 8.0 | 0.00 | 0.00 | 0.00 | 95 | 1016.0 |
| 20260503051520 | 55 | 99 | 4.0 | 7.0 | 0.00 | 0.00 | 0.00 | 94 | 1015.9 |
| 20260503050534 | 55 | 103 | 4.0 | 9.0 | 0.00 | 0.00 | 0.00 | 94 | 1016.1 |
| 20260503045528 | 55 | 110 | 4.0 | 7.0 | 0.00 | 0.00 | 0.00 | 94 | 1016.0 |
| 20260503044544 | 55 | 102 | 3.0 | 7.0 | 0.00 | 0.00 | 0.00 | 94 | 1015.9 |
| 20260503043518 | 55 | 111 | 3.0 | 6.0 | 0.00 | 0.00 | 0.00 | 94 | 1016.1 |
| 20260503042531 | 55 | 98 | 3.0 | 6.0 | 0.00 | 0.00 | 0.00 | 94 | 1016.1 |
| 20260503041545 | 55 | 96 | 2.0 | 6.0 | 0.00 | 0.00 | 0.00 | 94 | 1016.1 |
| 20260503040519 | 55 | 103 | 4.0 | 8.0 | 0.00 | 0.00 | 0.00 | 94 | 1016.3 |
| 20260503035533 | 55 | 106 | 3.0 | 8.0 | 0.00 | 0.00 | 0.00 | 94 | 1016.3 |
| 20260503034549 | 55 | 101 | 4.0 | 9.0 | 0.00 | 0.00 | 0.00 | 94 | 1016.4 |
| 20260503033522 | 55 | 104 | 3.0 | 7.0 | 0.00 | 0.00 | 0.00 | 94 | 1016.4 |
| 20260503032535 | 55 | 110 | 5.0 | 9.0 | 0.00 | 0.00 | 0.00 | 94 | 1016.5 |
| 20260503031529 | 55 | 106 | 4.0 | 9.0 | 0.00 | 0.00 | 0.00 | 93 | 1016.6 |
| 20260503030523 | 55 | 103 | 4.0 | 9.0 | 0.00 | 0.00 | 0.00 | 92 | 1016.7 |
| 20260503025519 | 56 | 118 | 5.0 | 10.0 | 0.00 | 0.00 | 0.00 | 92 | 1016.8 |
| 20260503024533 | 56 | 110 | 5.0 | 9.0 | 0.00 | 0.00 | 0.00 | 91 | 1017.0 |